Owosso, MI

8:55 PM EDT on March 24, 2017 (GMT -0400)
Owosso

Weather History for KRNP - October, 2013

Change the Weather History Date:

Monday, October 21, 2013

  Actual Average (KFNT) Record (KFNT)
Temperature  
Mean Temperature 50 °F -  
Max Temperature 57 °F 56 °F 83 °F (1953)
Min Temperature 42 °F 39 °F 19 °F (1974)
Degree Days  
Heating Degree Days 15    
Moisture  
Dew Point 42 °F    
Average Humidity 74    
Maximum Humidity 95    
Minimum Humidity 52    
Precipitation  
Precipitation 0.00 in - - ()
Sea Level Pressure  
Sea Level Pressure 29.81 in    
Wind  
Wind Speed 11 mph (SW)    
Max Wind Speed 17 mph    
Max Gust Speed 25 mph    
Visibility 10 miles    
Events Rain    
Averages and records for this station are not official NWS values.
T = Trace of Precipitation, MM = Missing Value Source: NWS Daily Summary

Daily Weather History Graph

Daily Weather History Graph

Search for Another Location

Airport or City:

Trip Planner

Search our weather history database for the weather conditions in past years. The results will help you decide how hot, cold, wet, or windy it might be!

Date:

Astronomy

Oct. 21, 2013 Rise Set
Actual Time 7:57 AM EDT 6:43 PM EDT
Civil Twilight 7:28 AM EDT 7:12 PM EDT
Nautical Twilight 6:55 AM EDT 7:45 PM EDT
Astronomical Twilight 6:22 AM EDT 8:18 PM EDT
Moon 8:32 PM EDT (10/21) 10:35 AM EDT (10/21)
Length of Visible Light 11h 44m
Length of Day
10h 46m
Waning Gibbous, 93% of the Moon is Illuminated
Oct 21
Waning Gibbous
Oct 26
Last Quarter
Nov 3
New
Nov 10
First Quarter
Nov 17
Full

Hourly Weather History & Observations

Time (EDT) Temp. Windchill Dew Point Humidity Pressure Visibility Wind Dir Wind Speed Gust Speed Precip Events Conditions
12:15 AM 57.6 °F - 40.1 °F 52% 29.78 in 10.0 mi SSW 13.8 mph 21.9 mph N/A   Overcast
12:35 AM 57.6 °F - 40.3 °F 53% 29.77 in 10.0 mi South 15.0 mph 21.9 mph N/A   Overcast
12:55 AM 57.4 °F - 40.3 °F 53% 29.77 in 10.0 mi SSW 16.1 mph 25.3 mph N/A   Mostly Cloudy
1:14 AM 57.4 °F - 40.5 °F 53% 29.78 in 10.0 mi SSW 12.7 mph 19.6 mph N/A   Mostly Cloudy
1:35 AM 57.4 °F - 40.6 °F 54% 29.78 in 10.0 mi SSW 12.7 mph 16.1 mph N/A   Overcast
1:55 AM 57.2 °F - 41.0 °F 55% 29.78 in 10.0 mi SSW 8.1 mph 17.3 mph N/A   Overcast
2:14 AM 56.3 °F - 41.0 °F 57% 29.78 in 10.0 mi SSW 10.4 mph 16.1 mph N/A   Mostly Cloudy
2:35 AM 55.8 °F - 41.2 °F 58% 29.78 in 10.0 mi SSW 8.1 mph - N/A   Mostly Cloudy
2:55 AM 55.4 °F - 41.4 °F 59% 29.79 in 10.0 mi SSW 8.1 mph - N/A   Scattered Clouds
3:14 AM 55.9 °F - 41.5 °F 58% 29.78 in 10.0 mi South 9.2 mph - N/A   Mostly Cloudy
3:35 AM 56.3 °F - 41.9 °F 59% 29.78 in 10.0 mi SSW 6.9 mph - N/A   Overcast
3:55 AM 56.3 °F - 42.4 °F 60% 29.79 in 10.0 mi SSW 8.1 mph 17.3 mph N/A   Drizzle
4:14 AM 55.0 °F - 43.7 °F 66% 29.79 in 10.0 mi SSW 8.1 mph - N/A   Drizzle
4:35 AM 55.0 °F - 43.7 °F 66% 29.79 in 10.0 mi SSW 8.1 mph - N/A   Light Drizzle
4:55 AM 55.4 °F - 43.2 °F 63% 29.79 in 10.0 mi SSW 10.4 mph 16.1 mph N/A   Overcast
5:15 AM 55.6 °F - 43.2 °F 63% 29.79 in 10.0 mi SSW 9.2 mph - N/A   Overcast
5:35 AM 54.7 °F - 44.2 °F 68% 29.78 in 10.0 mi SSW 9.2 mph 16.1 mph N/A Rain Rain
5:54 AM 54.5 °F - 44.6 °F 69% 29.79 in 10.0 mi SSW 10.4 mph - N/A   Drizzle
6:15 AM 53.1 °F - 46.0 °F 77% 29.79 in 10.0 mi SSW 9.2 mph - N/A Rain Rain
6:35 AM 52.2 °F - 47.7 °F 85% 29.79 in 10.0 mi SSW 6.9 mph - N/A Rain Rain
6:54 AM 51.8 °F - 48.2 °F 88% 29.79 in 10.0 mi South 9.2 mph - N/A   Drizzle
7:15 AM 51.8 °F - 48.6 °F 89% 29.79 in 10.0 mi SSW 10.4 mph - N/A Rain Light Rain
7:35 AM 51.4 °F - 48.9 °F 91% 29.79 in 10.0 mi SSW 9.2 mph 16.1 mph N/A Rain Light Rain
7:55 AM 51.3 °F - 49.1 °F 92% 29.79 in 7.0 mi SSW 8.1 mph 16.1 mph N/A Rain Rain
8:15 AM 51.1 °F - 49.5 °F 94% 29.80 in 7.0 mi SSW 10.4 mph 16.1 mph N/A Rain Light Rain
8:35 AM 51.1 °F - 49.6 °F 95% 29.80 in 7.0 mi South 9.2 mph - N/A Rain Light Rain
8:55 AM 51.1 °F - 49.8 °F 95% 29.80 in 7.0 mi SSW 9.2 mph - N/A Rain Rain
9:15 AM 51.3 °F - 49.6 °F 94% 29.81 in 10.0 mi SSW 11.5 mph - N/A   Overcast
9:35 AM 51.3 °F - 49.5 °F 94% 29.81 in 10.0 mi SSW 9.2 mph 16.1 mph N/A Rain Light Rain
9:55 AM 51.8 °F - 50.0 °F 94% 29.81 in 10.0 mi SSW 10.4 mph 16.1 mph N/A   Overcast
10:15 AM 52.0 °F - 50.0 °F 93% 29.81 in 10.0 mi SSW 8.1 mph - N/A   Overcast
10:35 AM 52.7 °F - 50.4 °F 92% 29.80 in 10.0 mi SSW 9.2 mph - N/A   Overcast
10:55 AM 52.3 °F - 49.6 °F 91% 29.80 in 10.0 mi SSW 9.2 mph 16.1 mph N/A   Overcast
11:14 AM 52.2 °F - 49.5 °F 91% 29.80 in 7.0 mi SSW 10.4 mph 17.3 mph N/A   Drizzle
11:35 AM 52.0 °F - 49.6 °F 92% 29.81 in 5.0 mi West 12.7 mph 18.4 mph N/A   Drizzle
11:55 AM 50.9 °F - 48.7 °F 92% 29.81 in 5.0 mi WSW 8.1 mph - N/A Rain Light Rain
12:14 PM 51.1 °F - 49.1 °F 93% 29.81 in 10.0 mi WSW 8.1 mph - N/A   Overcast
12:35 PM 51.4 °F - 47.7 °F 87% 29.81 in 10.0 mi WSW 11.5 mph 18.4 mph N/A   Overcast
12:54 PM 51.1 °F - 46.6 °F 85% 29.81 in 10.0 mi SW 8.1 mph 16.1 mph N/A   Overcast
1:15 PM 52.7 °F - 46.8 °F 80% 29.81 in 10.0 mi WSW 8.1 mph - N/A   Overcast
1:35 PM 51.1 °F - 45.5 °F 81% 29.81 in 10.0 mi West 11.5 mph 21.9 mph N/A   Overcast
1:54 PM 50.4 °F - 45.0 °F 82% 29.81 in 10.0 mi WSW 9.2 mph - N/A   Overcast
2:15 PM 50.0 °F - 44.1 °F 80% 29.80 in 10.0 mi West 10.4 mph 17.3 mph N/A   Overcast
2:35 PM 50.0 °F - 43.2 °F 77% 29.80 in 10.0 mi WSW 13.8 mph 21.9 mph N/A   Overcast
2:55 PM 49.8 °F - 42.6 °F 76% 29.80 in 10.0 mi WSW 17.3 mph - N/A   Overcast
3:15 PM 49.8 °F - 41.7 °F 74% 29.80 in 10.0 mi WSW 11.5 mph 18.4 mph N/A   Overcast
3:35 PM 50.4 °F - 41.0 °F 70% 29.80 in 10.0 mi WSW 17.3 mph 24.2 mph N/A   Overcast
3:55 PM 49.3 °F - 40.5 °F 72% 29.81 in 10.0 mi WSW 12.7 mph 17.3 mph N/A   Overcast
4:15 PM 48.7 °F - 38.5 °F 68% 29.81 in 10.0 mi WSW 12.7 mph 20.7 mph N/A   Overcast
4:34 PM 49.1 °F - 38.3 °F 66% 29.81 in 10.0 mi WSW 16.1 mph 20.7 mph N/A   Overcast
4:55 PM 48.2 °F - 37.8 °F 67% 29.81 in 10.0 mi WSW 12.7 mph 16.1 mph N/A   Overcast
5:14 PM 48.2 °F - 37.2 °F 66% 29.81 in 10.0 mi WSW 11.5 mph - N/A   Overcast
5:35 PM 47.8 °F - 37.2 °F 67% 29.82 in 10.0 mi WSW 9.2 mph 17.3 mph N/A   Overcast
5:55 PM 47.7 °F - 36.5 °F 65% 29.82 in 10.0 mi West 9.2 mph - N/A   Overcast
6:14 PM 47.3 °F - 35.8 °F 64% 29.83 in 10.0 mi WSW 11.5 mph 21.9 mph N/A   Overcast
6:35 PM 46.8 °F - 35.1 °F 64% 29.83 in 10.0 mi WSW 13.8 mph 19.6 mph N/A   Overcast
6:55 PM 46.2 °F 41.2 °F 34.5 °F 64% 29.84 in 10.0 mi WSW 10.4 mph - N/A   Overcast
7:14 PM 45.5 °F 40.8 °F 34.7 °F 66% 29.84 in 10.0 mi WSW 9.2 mph - N/A   Overcast
7:35 PM 45.1 °F 41.4 °F 35.2 °F 68% 29.84 in 10.0 mi WSW 6.9 mph - N/A   Overcast
7:55 PM 45.1 °F 42.0 °F 35.6 °F 69% 29.84 in 10.0 mi WSW 5.8 mph - N/A   Overcast
8:14 PM 45.0 °F 41.8 °F 36.0 °F 71% 29.84 in 10.0 mi WSW 5.8 mph - N/A   Overcast
8:35 PM 44.8 °F 41.0 °F 36.0 °F 71% 29.84 in 10.0 mi SW 6.9 mph - N/A   Overcast
8:54 PM 44.6 °F 40.7 °F 36.0 °F 72% 29.84 in 10.0 mi WSW 6.9 mph - N/A   Overcast
9:15 PM 44.1 °F 40.8 °F 36.0 °F 73% 29.83 in 10.0 mi SSW 5.8 mph - N/A   Overcast
9:35 PM 43.9 °F 41.3 °F 36.1 °F 74% 29.82 in 10.0 mi SW 4.6 mph - N/A   Overcast
9:54 PM 43.9 °F 41.3 °F 36.5 °F 75% 29.82 in 10.0 mi SW 4.6 mph - N/A   Overcast
10:15 PM 44.1 °F 40.8 °F 36.5 °F 75% 29.82 in 10.0 mi WSW 5.8 mph - N/A   Overcast
10:35 PM 43.9 °F 39.3 °F 36.9 °F 76% 29.83 in 10.0 mi WSW 8.1 mph - N/A   Overcast
10:55 PM 43.2 °F 37.0 °F 37.6 °F 81% 29.83 in 10.0 mi West 11.5 mph - N/A   Overcast
11:15 PM 43.3 °F 36.8 °F 35.2 °F 73% 29.83 in 10.0 mi West 12.7 mph 20.7 mph N/A   Overcast
11:34 PM 43.2 °F 35.6 °F 33.1 °F 68% 29.84 in 10.0 mi WNW 16.1 mph 21.9 mph N/A   Overcast
11:55 PM 42.1 °F 34.9 °F 31.5 °F 66% 29.84 in 10.0 mi West 13.8 mph 20.7 mph N/A   Overcast